Weather in Koping

Sweden     59°30′53″N   15°59′51″E
temp.,
°C
wind,
m/s
gust,
m/s
humid.,
%
clouds,
%
prec.,
mm/h
press.,
hPa
HPBL,
m
13 april, tue
tue1323:000ssw299499 0.0 1015246
02:000ssw39945 0.0 1016283
05:00−1s39945 0.0 1015329
08:00+1s4109193 0.0 1015623
11:00+3ssw3889100 0.4 1016842
14:00+5sw577289 0.7 10161299
17:00+5wnw37725 0.6 10171294
20:00+1wsw26895 0.8 101996
14 april, wed
wed1423:00−2wnw27934 0.0 1021119
02:00−2nw27905 0.0 1022136
05:00−3nw26885 0.0 1024114
08:00+1nnw39715 0.0 1025340
11:00+5nnw465321 0.0 10261661
14:00+7n3651100 0.0 10271827
17:00+6n356182 0.2 10271159
20:00+3n118045 0.3 102810
15 april, thu
thu1523:00+1nnw11845 0.0 103010
02:000nnw22885 0.0 103130
05:000n25905 0.0 103180
08:00+3n25755 0.0 1033199
11:00+7nne46585 0.0 10331274
14:00+9ne455115 0.0 10331597
17:00+9ne46525 0.0 10321578
20:00+5ne22785 0.0 103315
16 april, fri
fri1623:00+3nne228831 0.0 103423
02:00+3n26905 0.0 1034137
05:00+2n28945 0.0 1034193
08:00+4nne39815 0.0 1034370
11:00+9ne466421 0.0 10341016
14:00+11ne455249 0.0 10341642
17:00+11ne465643 0.0 10341571
20:00+7nne49756 0.0 1035401
17 april, sat
sat1723:00+4nne3988100 0.0 1036301
02:00+2nne388817 0.0 1036232
05:00+2nne398899 0.0 1037250
08:00+4ne367920 0.0 1037255
11:00+10ene475474 0.0 10361089
14:00+12e464358 0.0 10351510
17:00+11e464556 0.0 10351150
20:00+7e38625 0.0 1035274